period_start,C,m1,H,J0,J1,J2,J3,J4,J5,JA,JB,JC,JD,JJ,JK,JN,#
2017-03-12 00:03:04,0.11,10.04,0.00,20.73,24.12,27.93,14.64,50.95,1014.92,2036.98,1234.43,1483.98,1659.08,599.78,599.48,54.13,0000 0000 0000 0000 000000
2017-03-12 00:08:06,0.10,10.05,0.00,20.72,24.12,27.90,14.69,51.05,1015.10,2036.99,1233.87,1483.48,1658.78,600.14,599.87,54.18,0000 0000 0000 0000 000000
2017-03-12 00:13:07,0.11,10.06,0.00,20.72,24.12,27.92,14.61,50.85,1015.15,2036.98,1233.05,1483.00,1658.04,599.89,599.73,54.23,0000 0000 0000 0000 000000
2017-03-12 00:18:08,0.13,10.06,0.00,20.73,24.12,27.92,14.62,50.84,1015.15,2036.99,1232.45,1482.68,1657.78,599.83,599.53,54.29,0000 0000 0000 0000 000000
2017-03-12 00:23:09,0.08,10.07,0.00,20.73,24.12,27.96,14.64,50.94,1015.15,2036.99,1231.93,1482.03,1657.05,600.09,599.83,54.34,0000 0000 0000 0000 000000
2017-03-12 00:28:11,0.09,10.07,0.00,20.76,24.12,27.93,14.67,50.75,1015.15,2036.99,1231.10,1481.95,1656.82,599.94,599.70,54.39,0000 0000 0000 0000 000000
2017-03-12 00:33:12,0.16,10.08,0.00,20.78,24.13,27.95,14.64,50.77,1015.15,2036.99,1230.62,1481.19,1656.06,599.70,599.33,54.44,0000 0000 0000 0000 000000
2017-03-12 00:38:13,0.05,10.08,0.00,20.77,24.14,27.99,14.74,50.67,1015.15,2036.99,1229.98,1480.99,1655.79,600.62,600.32,54.49,0000 0000 0000 0000 000000
2017-03-12 00:43:14,0.17,10.09,0.00,20.79,24.14,27.98,14.74,50.77,1015.15,2036.99,1229.18,1480.47,1655.06,600.38,600.03,54.54,0000 0000 0000 0000 000000
2017-03-12 00:48:16,0.07,10.09,0.00,20.82,24.15,28.01,14.68,50.79,1015.17,2036.99,1228.81,1480.00,1654.71,600.19,599.70,54.59,0000 0000 0000 0000 000000
2017-03-12 00:53:17,0.10,10.10,0.00,20.84,24.15,28.01,14.70,50.75,1015.21,2036.99,1228.05,1479.80,1654.03,600.30,599.91,54.64,0000 0000 0000 0000 000000
2017-03-12 00:58:19,0.14,10.11,0.00,20.88,24.15,28.03,14.72,50.57,1015.22,2036.99,1227.44,1479.07,1653.75,600.37,599.84,54.69,0000 0000 0000 0000 000000
2017-03-12 01:03:20,0.05,10.11,0.00,20.92,24.16,28.06,14.59,50.33,1015.22,2036.99,1226.91,1478.94,1653.04,600.06,599.51,54.74,0000 0000 0000 0000 000000
2017-03-12 01:08:21,0.18,10.12,0.00,20.93,24.17,28.14,14.64,50.58,1015.24,2036.98,1226.07,1478.16,1652.53,599.96,599.41,54.79,0000 0000 0000 0000 000000
2017-03-12 01:13:22,0.09,10.12,0.00,20.95,24.18,28.10,14.70,50.73,1015.22,2036.98,1225.42,1477.95,1652.00,600.08,599.45,54.84,0000 0000 0000 0000 000000
2017-03-12 01:18:24,0.13,10.13,0.00,21.01,24.20,28.11,14.65,50.68,1015.23,2036.97,1224.84,1477.26,1651.43,600.17,599.41,54.89,0000 0000 0000 0000 000000
2017-03-12 01:23:25,0.08,10.14,0.00,21.05,24.20,28.08,14.62,50.67,1015.18,2036.97,1224.05,1476.99,1650.98,599.93,599.14,54.94,0000 0000 0000 0000 000000
2017-03-12 01:28:26,0.17,10.14,0.00,21.07,24.22,28.14,14.60,50.82,1015.16,2036.95,1223.47,1476.51,1650.29,599.97,599.09,54.99,0000 0000 0000 0000 000000
2017-03-12 01:33:27,0.04,10.15,0.00,21.09,24.23,28.12,14.59,50.52,1015.15,2036.95,1222.89,1476.01,1649.98,600.45,599.44,55.04,0000 0000 0000 0000 000000
2017-03-12 01:38:28,0.12,10.15,0.00,21.11,24.25,28.14,14.65,50.58,1015.15,2036.83,1222.07,1475.75,1649.29,599.97,599.01,55.09,0000 0000 0000 0000 000000
2017-03-12 01:43:30,0.10,10.16,0.00,21.14,24.27,28.16,14.68,50.59,1015.15,2036.72,1221.46,1475.05,1648.95,600.53,599.37,55.14,0000 0000 0000 0000 000000
2017-03-12 01:48:31,0.07,10.16,0.00,21.19,24.28,28.21,14.67,50.65,1015.15,2036.58,1220.94,1474.85,1648.14,599.78,598.63,55.19,0000 0000 0000 0000 000000
2017-03-12 01:53:32,0.08,10.17,0.00,21.22,24.30,28.21,14.60,50.63,1015.15,2036.24,1220.11,1474.10,1647.84,599.50,598.30,55.24,0000 0000 0000 0000 000000
2017-03-12 01:58:33,0.11,10.17,0.00,21.24,24.32,28.24,14.56,50.73,1015.15,2036.03,1219.41,1473.84,1647.05,600.04,598.76,55.29,0000 0000 0000 0000 000000
2017-03-12 02:03:35,0.13,10.18,0.00,21.28,24.35,28.27,14.66,50.64,1015.15,2036.03,1218.79,1473.07,1646.59,600.02,598.69,55.35,0000 0000 0000 0000 000000
2017-03-12 02:08:36,0.08,10.18,0.00,21.29,24.36,28.29,14.61,50.71,1015.15,2036.00,1218.02,1472.87,1646.01,600.13,598.82,55.40,0000 0000 0000 0000 000000
2017-03-12 02:13:37,0.18,10.19,0.00,21.33,24.39,28.29,14.59,50.67,1015.13,2036.00,1217.28,1472.10,1645.28,599.87,598.36,55.45,0000 0000 0000 0000 000000
2017-03-12 02:18:38,0.05,10.20,0.00,21.36,24.41,28.34,14.65,50.76,1015.12,2036.00,1216.73,1471.96,1644.96,600.22,598.76,55.50,0000 0000 0000 0000 000000
2017-03-12 02:23:40,0.16,10.20,0.00,21.37,24.43,28.38,14.70,50.77,1015.10,2036.00,1216.02,1471.26,1644.15,600.11,598.63,55.55,0000 0000 0000 0000 000000
2017-03-12 02:28:41,0.10,10.21,0.00,21.41,24.45,28.38,14.59,50.67,1015.12,2036.00,1215.28,1471.00,1643.81,599.95,598.23,55.60,0000 0000 0000 0000 000000
2017-03-12 02:33:42,0.11,10.21,0.00,21.42,24.48,28.40,14.60,50.63,1015.14,2035.98,1214.87,1470.47,1643.06,599.92,598.27,55.65,0000 0000 0000 0000 000000
2017-03-12 02:38:44,0.11,10.22,0.00,21.43,24.50,28.45,14.61,50.66,1015.15,2035.98,1214.05,1470.01,1642.67,599.96,598.34,55.70,0000 0000 0000 0000 000000
2017-03-12 02:43:45,0.12,10.23,0.00,21.47,24.52,28.47,14.55,50.77,1015.15,2035.86,1213.40,1469.59,1642.02,599.77,598.18,55.75,0000 0000 0000 0000 000000
2017-03-12 02:48:46,0.06,10.23,0.00,21.50,24.55,28.50,14.67,50.73,1015.15,2035.49,1212.76,1469.02,1641.35,600.32,598.44,55.80,0000 0000 0000 0000 000000
2017-03-12 02:53:48,0.07,10.23,0.00,21.49,24.57,28.52,14.62,50.79,1015.16,2035.25,1212.01,1468.57,1640.96,599.81,598.10,55.85,0000 0000 0000 0000 000000
2017-03-12 02:58:49,0.12,10.24,0.00,21.53,24.60,28.54,14.55,50.61,1015.18,2035.10,1211.27,1468.02,1640.14,599.84,598.00,55.90,0000 0000 0000 0000 000000
2017-03-12 03:03:50,0.11,10.24,0.00,21.56,24.62,28.57,14.68,50.73,1015.21,2035.02,1210.68,1467.65,1639.71,600.67,598.69,55.95,0000 0000 0000 0000 000000
2017-03-12 03:08:51,0.10,10.25,0.00,21.58,24.64,28.60,14.64,50.76,1015.22,2035.00,1209.93,1467.01,1639.02,600.10,598.28,56.00,0000 0000 0000 0000 000000
2017-03-12 03:13:53,0.17,10.26,0.00,21.61,24.67,28.64,14.60,50.64,1015.19,2035.00,1209.10,1466.56,1638.36,599.84,597.84,56.05,0000 0000 0000 0000 000000
2017-03-12 03:18:54,0.11,10.27,0.00,21.63,24.69,28.64,14.66,50.67,1015.17,2035.00,1208.33,1466.01,1637.89,600.19,598.14,56.10,0000 0000 0000 0000 000000
2017-03-12 03:23:55,0.15,10.27,0.00,21.64,24.72,28.67,14.64,50.80,1015.16,2034.99,1207.69,1465.50,1637.08,600.31,598.26,56.15,0000 0000 0000 0000 000000
2017-03-12 03:28:57,0.09,10.28,0.00,21.69,24.74,28.68,14.69,50.72,1015.15,2034.98,1206.95,1465.00,1636.60,600.37,598.23,56.20,0000 0000 0000 0000 000000
2017-03-12 03:33:58,0.16,10.29,0.00,21.71,24.76,28.71,14.59,50.65,1015.15,2034.96,1206.09,1464.42,1635.99,600.11,597.90,56.26,0000 0000 0000 0000 000000
2017-03-12 03:39:00,0.10,10.29,0.00,21.74,24.79,28.71,14.59,50.72,1015.15,2034.75,1205.33,1464.00,1635.25,599.86,597.55,56.31,0000 0000 0000 0000 000000
2017-03-12 03:44:01,0.08,10.30,0.00,21.77,24.81,28.75,14.59,50.65,1015.14,2034.36,1204.63,1463.39,1634.82,600.04,597.73,56.36,0000 0000 0000 0000 000000
2017-03-12 03:49:02,0.05,10.30,0.00,21.80,24.84,28.76,14.60,50.69,1015.09,2034.10,1203.93,1462.99,1634.04,600.02,597.54,56.41,0000 0000 0000 0000 000000
2017-03-12 03:54:03,0.18,10.31,0.00,21.80,24.87,28.78,14.57,50.61,1014.96,2034.06,1203.08,1462.30,1633.50,600.00,597.47,56.46,0000 0000 0000 0000 000000
2017-03-12 03:59:04,0.09,10.31,0.00,21.86,24.89,28.81,14.61,50.83,1014.70,2034.01,1202.34,1461.98,1632.98,599.75,597.16,56.51,0000 0000 0000 0000 000000
2017-03-12 04:04:06,0.18,10.32,0.00,21.88,24.92,28.85,14.55,50.73,1014.68,2034.00,1201.63,1461.27,1632.17,599.71,596.76,56.56,0000 0000 0000 0000 000000
2017-03-12 04:09:07,0.06,10.33,0.00,21.90,24.95,28.87,14.56,50.67,1014.70,2034.00,1200.94,1460.95,1631.75,599.68,596.93,56.61,0000 0000 0000 0000 000000
2017-03-12 04:14:08,0.20,10.34,0.00,21.91,24.97,28.91,14.60,50.74,1014.71,2034.00,1200.12,1460.13,1630.87,599.68,596.70,56.66,0000 0000 0000 0000 000000
2017-03-12 04:19:09,0.16,10.34,0.00,21.92,24.99,28.92,14.58,50.67,1014.69,2033.98,1199.29,1459.65,1630.07,600.15,597.29,56.71,0000 0000 0000 0000 000000
2017-03-12 04:24:10,0.13,10.35,0.00,21.95,25.01,28.97,14.55,50.77,1014.68,2033.95,1198.48,1459.02,1629.52,599.87,596.90,56.76,0000 0000 0000 0000 000000
2017-03-12 04:29:12,0.13,10.36,0.00,21.97,25.04,28.97,14.68,50.88,1014.73,2033.85,1197.71,1458.36,1628.92,600.54,597.41,56.81,0000 0000 0000 0000 000000
2017-03-12 04:34:13,0.00,10.36,0.00,21.98,25.06,29.00,14.63,51.04,1014.76,2033.31,1196.98,1457.99,1628.09,600.05,597.02,56.86,0000 0000 0000 0000 000000
2017-03-12 04:39:14,0.17,10.37,0.00,21.96,25.09,29.02,14.60,50.83,1014.78,2033.19,1196.12,1457.33,1627.70,600.28,597.24,56.91,0000 0000 0000 0000 000000
2017-03-12 04:44:15,0.09,10.37,0.00,21.98,25.11,29.04,14.59,51.02,1014.97,2033.03,1195.33,1456.96,1627.01,599.71,596.73,56.96,0000 0000 0000 0000 000000
2017-03-12 04:49:17,0.16,10.38,0.00,22.01,25.13,29.03,14.62,50.79,1014.86,2033.02,1194.72,1456.23,1626.35,600.10,597.18,57.01,0000 0000 0000 0000 000000
2017-03-12 04:54:18,0.06,10.39,0.00,22.02,25.16,29.08,14.61,50.90,1014.73,2033.00,1193.95,1455.96,1625.86,600.23,597.02,57.06,0000 0000 0000 0000 000000
2017-03-12 04:59:20,0.19,10.40,0.00,22.05,25.18,29.12,14.59,50.95,1014.67,2033.00,1193.11,1455.24,1625.07,599.77,596.53,57.11,0000 0000 0000 0000 000000
2017-03-12 05:04:21,0.13,10.40,0.00,22.08,25.21,29.12,14.61,50.83,1014.67,2032.98,1192.46,1454.87,1624.52,600.19,596.96,57.16,0000 0000 0000 0000 000000
2017-03-12 05:09:22,0.11,10.41,0.00,22.08,25.23,29.15,14.56,50.58,1014.66,2032.96,1191.79,1454.11,1624.00,599.95,596.56,57.22,0000 0000 0000 0000 000000
2017-03-12 05:14:23,0.10,10.41,0.00,22.12,25.25,29.15,14.63,50.63,1014.66,2032.91,1191.04,1453.89,1623.35,600.15,596.81,57.27,0000 0000 0000 0000 000000
2017-03-12 05:19:25,0.12,10.42,0.00,22.16,25.27,29.21,14.60,50.58,1014.66,2032.58,1190.25,1453.08,1622.79,599.98,596.40,57.32,0000 0000 0000 0000 000000
2017-03-12 05:24:26,0.05,10.42,0.00,22.18,25.30,29.20,14.57,50.43,1014.66,2032.29,1189.65,1452.90,1622.05,600.21,596.75,57.37,0000 0000 0000 0000 000000
2017-03-12 05:29:28,0.12,10.43,0.00,22.21,25.32,29.20,14.56,50.39,1014.62,2032.09,1188.98,1452.11,1621.57,600.09,596.55,57.42,0000 0000 0000 0000 000000
2017-03-12 05:34:29,0.09,10.43,0.00,22.24,25.35,29.24,14.62,50.52,1014.51,2032.01,1188.14,1451.89,1621.00,600.05,596.38,57.47,0000 0000 0000 0000 000000
2017-03-12 05:39:30,0.19,10.44,0.00,22.27,25.37,29.25,14.50,50.52,1014.31,2032.00,1187.48,1451.09,1620.25,599.74,595.98,57.52,0000 0000 0000 0000 000000
2017-03-12 05:44:31,0.06,10.45,0.00,22.32,25.40,29.29,14.54,50.45,1014.21,2032.00,1186.81,1450.85,1619.84,600.18,596.24,57.57,0000 0000 0000 0000 000000
2017-03-12 05:49:32,0.17,10.46,0.00,22.32,25.42,29.32,14.58,50.55,1014.18,2032.00,1186.03,1450.07,1619.05,600.35,596.28,57.62,0000 0000 0000 0000 000000
2017-03-12 05:54:33,0.15,10.46,0.00,22.35,25.45,29.36,14.60,50.62,1014.18,2031.98,1185.20,1449.77,1618.49,600.14,595.98,57.67,0000 0000 0000 0000 000000
2017-03-12 05:59:35,0.12,10.47,0.00,22.39,25.47,29.37,14.58,50.73,1014.18,2031.97,1184.57,1449.05,1617.98,600.14,596.05,57.72,0000 0000 0000 0000 000000
2017-03-12 06:04:36,0.09,10.47,0.00,22.42,25.50,29.40,14.58,50.47,1014.18,2031.84,1183.88,1448.74,1617.20,600.08,595.83,57.77,0000 0000 0000 0000 000000
2017-03-12 06:09:38,0.09,10.48,0.00,22.44,25.52,29.42,14.51,50.53,1014.17,2031.56,1183.07,1448.05,1616.83,599.84,595.68,57.82,0000 0000 0000 0000 000000
2017-03-12 06:14:39,0.09,10.48,0.00,22.50,25.55,29.46,14.50,50.53,1014.13,2031.26,1182.32,1447.80,1616.06,599.67,595.36,57.87,0000 0000 0000 0000 000000
2017-03-12 06:19:40,0.14,10.49,0.00,22.52,25.58,29.49,14.55,50.64,1013.92,2031.08,1181.63,1447.06,1615.61,600.05,595.55,57.92,0000 0000 0000 0000 000000
2017-03-12 06:24:42,0.07,10.49,0.00,22.52,25.61,29.52,14.61,50.70,1013.76,2031.01,1180.93,1446.75,1614.99,600.30,595.69,57.97,0000 0000 0000 0000 000000
2017-03-12 06:29:43,0.17,10.50,0.00,22.56,25.63,29.54,14.55,50.77,1013.70,2031.00,1180.09,1446.02,1614.18,600.04,595.26,58.02,0000 0000 0000 0000 000000
2017-03-12 06:34:44,0.13,10.51,0.00,22.59,25.66,29.56,14.52,50.70,1013.69,2031.00,1179.35,1445.65,1613.85,600.05,595.24,58.07,0000 0000 0000 0000 000000
2017-03-12 06:39:46,0.12,10.52,0.00,22.59,25.69,29.61,14.52,50.73,1013.69,2030.98,1178.72,1445.04,1613.06,599.72,595.01,58.12,0000 0000 0000 0000 000000
2017-03-12 06:44:47,0.14,10.52,0.00,22.60,25.71,29.62,14.57,50.67,1013.69,2030.98,1177.97,1444.59,1612.53,599.85,594.97,58.18,0000 0000 0000 0000 000000
2017-03-12 06:49:48,0.09,10.53,0.00,22.63,25.74,29.65,14.58,50.72,1013.69,2030.88,1177.11,1444.01,1611.98,600.58,595.57,58.23,0000 0000 0000 0000 000000
2017-03-12 06:54:50,0.12,10.54,0.00,22.64,25.77,29.69,14.52,50.67,1013.69,2030.53,1176.45,1443.57,1611.16,600.18,595.22,58.28,0000 0000 0000 0000 000000
2017-03-12 06:59:51,0.02,10.54,0.00,22.65,25.80,29.70,14.54,50.82,1013.69,2030.11,1175.82,1443.01,1610.77,599.95,594.94,58.33,0000 0000 0000 0000 000000
2017-03-12 07:04:53,0.15,10.54,0.00,22.66,25.82,29.74,14.58,50.74,1013.69,2030.04,1175.02,1442.54,1610.03,600.24,595.30,58.38,0000 0000 0000 0000 000000
2017-03-12 07:09:54,0.14,10.55,0.00,22.69,25.85,29.76,14.52,50.70,1013.69,2030.00,1174.18,1442.00,1609.40,599.78,594.73,58.43,0000 0000 0000 0000 000000
2017-03-12 07:14:55,0.14,10.56,0.00,22.72,25.87,29.81,14.49,50.53,1013.69,2030.00,1173.53,1441.46,1608.95,600.26,594.83,58.48,0000 0000 0000 0000 000000
2017-03-12 07:19:57,0.10,10.57,0.00,22.72,25.90,29.82,14.47,50.53,1013.69,2030.00,1172.84,1441.00,1608.13,599.79,594.66,58.53,0000 0000 0000 0000 000000
2017-03-12 07:24:58,0.17,10.57,0.00,22.73,25.92,29.85,14.56,50.69,1013.69,2029.98,1172.05,1440.34,1607.66,600.16,595.02,58.58,0000 0000 0000 0000 000000
2017-03-12 07:29:59,0.11,10.58,0.00,22.75,25.95,29.82,14.61,50.69,1013.69,2029.98,1171.32,1439.99,1607.00,600.25,595.06,58.63,0000 0000 0000 0000 000000
2017-03-12 07:35:01,0.19,10.59,0.00,22.78,25.97,29.88,14.59,50.68,1013.69,2029.97,1170.58,1439.33,1606.30,599.99,594.90,58.68,0000 0000 0000 0000 000000
2017-03-12 07:40:03,0.08,10.59,0.00,22.79,26.00,29.88,14.54,50.84,1013.65,2029.76,1169.72,1438.86,1605.70,600.12,594.82,58.73,0000 0000 0000 0000 000000
2017-03-12 07:45:04,0.11,10.60,0.00,22.81,26.02,29.91,14.52,50.83,1013.49,2029.49,1168.87,1438.06,1605.01,599.80,594.34,58.78,0000 0000 0000 0000 000000
2017-03-12 07:50:05,0.12,10.61,0.00,22.83,26.05,29.96,14.50,50.58,1013.25,2029.29,1168.06,1437.70,1604.37,599.75,594.10,58.83,0000 0000 0000 0000 000000
2017-03-12 07:55:06,0.14,10.61,0.00,22.86,26.07,29.98,14.53,50.72,1013.21,2029.06,1167.29,1437.02,1603.73,599.99,594.37,58.88,0000 0000 0000 0000 000000
2017-03-12 08:00:07,0.16,10.62,0.00,22.86,26.10,30.02,14.53,50.80,1013.20,2029.02,1166.56,1436.48,1603.00,599.84,594.10,58.93,0000 0000 0000 0000 000000
2017-03-12 08:05:09,0.11,10.63,0.00,22.87,26.12,30.03,14.54,50.66,1013.20,2029.00,1165.80,1435.95,1602.25,599.89,594.21,58.98,0000 0000 0000 0000 000000
2017-03-12 08:10:10,0.17,10.63,0.00,22.90,26.14,30.04,14.50,50.87,1013.20,2029.00,1165.02,1435.14,1601.61,600.36,594.59,59.03,0000 0000 0000 0000 000000
2017-03-12 08:15:11,0.13,10.64,0.00,22.92,26.16,30.09,14.57,50.77,1013.20,2029.00,1164.18,1434.82,1600.96,600.27,594.58,59.08,0000 0000 0000 0000 000000
2017-03-12 08:20:12,0.18,10.65,0.00,23.07,26.19,30.09,14.53,51.06,1013.20,2028.99,1163.45,1434.05,1600.11,599.75,593.65,59.14,0000 0000 0000 0000 000000
2017-03-12 08:25:13,0.10,10.65,0.00,23.13,26.22,30.05,14.57,51.29,1013.20,2028.95,1162.87,1433.69,1599.61,600.04,593.82,59.19,0000 0000 0000 0000 000000
2017-03-12 08:30:15,0.09,10.66,0.00,23.10,26.25,30.10,14.51,50.92,1013.20,2028.74,1162.07,1433.02,1599.01,600.13,593.90,59.24,0000 0000 0000 0000 000000
2017-03-12 08:35:16,0.16,10.67,0.00,22.96,26.28,30.13,14.59,50.82,1013.20,2028.57,1161.40,1432.56,1598.51,600.01,594.07,59.29,0000 0000 0000 0000 000000
2017-03-12 08:40:18,0.02,10.67,0.00,22.91,26.30,30.20,14.52,50.92,1013.20,2028.27,1160.79,1432.01,1597.97,600.07,594.32,59.34,0000 0000 0000 0000 000000
2017-03-12 08:45:19,0.17,10.68,0.00,22.91,26.31,30.31,14.56,50.93,1013.20,2028.11,1160.03,1431.54,1597.18,600.15,594.36,59.39,0000 0000 0000 0000 000000
2017-03-12 08:50:20,0.11,10.68,0.00,22.90,26.32,30.28,14.62,50.83,1013.20,2028.04,1159.24,1431.00,1596.73,600.09,594.34,59.44,0000 0000 0000 0000 000000
2017-03-12 08:55:22,0.17,10.69,0.00,22.89,26.32,30.31,14.58,50.79,1013.20,2028.03,1158.65,1430.32,1596.03,599.85,594.09,59.49,0000 0000 0000 0000 000000
2017-03-12 09:00:23,0.08,10.70,0.00,22.89,26.32,30.24,14.53,50.87,1013.20,2028.05,1157.97,1430.00,1595.44,599.96,594.25,59.54,0000 0000 0000 0000 000000
2017-03-12 09:05:24,0.17,10.70,0.00,22.89,26.34,30.14,14.51,50.83,1013.20,2028.03,1157.16,1429.46,1594.94,599.93,594.23,59.59,0000 0000 0000 0000 000000
2017-03-12 09:10:26,0.13,10.71,0.00,22.89,26.35,30.21,14.52,50.85,1013.20,2028.02,1156.53,1429.00,1594.13,600.30,594.42,59.64,0000 0000 0000 0000 000000
2017-03-12 09:15:27,0.10,10.72,0.00,22.91,26.35,30.16,14.49,50.80,1013.20,2028.00,1155.97,1428.45,1593.85,599.87,594.08,59.69,0000 0000 0000 0000 000000
2017-03-12 09:20:28,0.14,10.73,0.00,22.93,26.35,30.14,14.44,50.61,1013.20,2028.01,1155.15,1428.01,1593.08,599.85,593.97,59.74,0000 0000 0000 0000 000000
2017-03-12 09:25:29,0.16,10.73,0.00,22.96,26.35,30.15,14.50,50.49,1013.18,2028.00,1154.59,1427.52,1592.65,599.90,594.00,59.79,0000 0000 0000 0000 000000
2017-03-12 09:30:31,0.06,10.74,0.00,22.97,26.36,30.13,14.55,50.68,1013.13,2028.00,1153.99,1427.00,1592.02,599.98,594.17,59.84,0000 0000 0000 0000 000000
2017-03-12 09:35:32,0.19,10.74,0.00,23.14,26.37,30.15,14.55,50.94,1012.96,2028.00,1153.23,1426.46,1591.47,599.87,593.45,59.89,0000 0000 0000 0000 000000
2017-03-12 09:40:33,0.06,10.75,0.00,23.20,26.39,30.13,14.45,50.98,1012.81,2028.00,1152.79,1425.99,1590.92,600.23,593.65,59.94,0000 0000 0000 0000 000000
2017-03-12 09:45:35,0.18,10.76,0.00,23.20,26.41,30.17,14.65,51.08,1012.74,2028.00,1151.98,1425.25,1590.10,600.41,593.79,59.99,0000 0000 0000 0000 000000
2017-03-12 09:50:37,0.14,10.77,0.00,23.07,26.42,30.22,14.53,50.91,1012.74,2027.99,1151.13,1424.94,1589.43,599.89,593.55,60.04,0000 0000 0000 0000 000000
2017-03-12 09:55:38,0.13,10.77,0.00,23.02,26.43,30.29,14.53,50.94,1012.73,2027.99,1150.71,1424.17,1588.97,600.04,593.70,60.10,0000 0000 0000 0000 000000
2017-03-12 10:00:39,0.14,6.11,0.00,23.01,26.47,30.41,13.03,43.95,1012.77,2030.35,2297.14,2202.28,2501.56,533.87,524.39,0.02,0000 0000 0000 0000 000002
2017-03-12 10:05:40,0.13,0.00,0.00,23.02,26.47,30.43,14.44,48.98,1012.76,2033.04,3600.13,3087.62,3542.21,600.01,593.86,0.03,0000 0000 0000 0000 000000
2017-03-12 10:10:42,0.14,0.00,0.00,23.00,26.46,30.31,14.53,48.71,1012.78,2033.03,3596.19,3085.23,3539.48,599.82,593.60,0.08,0000 0000 0000 0000 000000
2017-03-12 10:15:43,0.15,0.01,0.00,23.01,26.45,30.19,14.44,48.57,1012.78,2033.02,3592.74,3082.66,3536.29,600.05,593.86,0.13,0000 0000 0000 0000 000000
2017-03-12 10:20:44,0.16,0.02,0.00,23.04,26.45,30.18,14.48,48.37,1012.89,2033.00,3588.75,3079.78,3532.53,599.85,593.67,0.18,0000 0000 0000 0000 000000
2017-03-12 10:25:45,0.14,0.03,0.00,23.18,26.46,30.16,14.36,48.17,1012.98,2033.00,3586.12,3078.09,3530.33,599.57,593.11,0.23,0000 0000 0000 0000 000000
2017-03-12 10:30:47,0.12,0.03,0.00,23.24,26.47,30.19,14.53,48.36,1012.89,2033.01,3583.61,3076.25,3528.16,600.00,593.33,0.28,0000 0000 0000 0000 000000
2017-03-12 10:35:48,0.11,0.04,0.00,23.32,26.48,30.21,14.45,48.21,1012.82,2033.00,3581.17,3074.44,3525.97,600.22,593.40,0.33,0000 0000 0000 0000 000000
2017-03-12 10:40:49,0.10,0.05,0.00,23.23,26.50,30.27,14.47,48.10,1012.74,2033.00,3578.73,3072.79,3524.02,600.02,593.30,0.38,0000 0000 0000 0000 000000
2017-03-12 10:45:51,0.10,0.05,0.00,23.13,26.50,30.33,14.47,48.15,1012.73,2032.99,3576.20,3071.23,3522.03,599.92,593.42,0.43,0000 0000 0000 0000 000000
2017-03-12 10:50:52,0.11,0.06,0.00,23.14,26.51,30.36,14.45,48.01,1012.74,2032.99,3573.61,3069.59,3520.02,599.77,593.29,0.48,0000 0000 0000 0000 000000
2017-03-12 10:55:53,0.11,0.06,0.00,23.25,26.52,30.33,14.50,48.02,1012.88,2032.97,3571.05,3067.90,3518.05,600.23,593.57,0.53,0000 0000 0000 0000 000000
2017-03-12 11:00:55,0.12,0.07,0.00,23.31,26.52,30.25,14.39,48.11,1013.09,2032.95,3568.41,3066.05,3515.88,599.76,593.08,0.58,0000 0000 0000 0000 000000
2017-03-12 11:05:56,0.14,0.07,0.00,23.36,26.53,30.22,14.44,48.07,1013.17,2032.93,3565.54,3063.97,3513.37,599.94,593.23,0.63,0000 0000 0000 0000 000000
2017-03-12 11:10:57,0.08,0.08,0.00,23.36,26.55,30.25,14.48,47.98,1013.16,2032.72,3562.89,3062.05,3511.19,599.80,593.10,0.69,0000 0000 0000 0000 000000
2017-03-12 11:15:59,0.09,0.08,0.00,23.21,26.55,30.29,14.48,47.87,1013.17,2032.47,3560.30,3060.26,3509.06,600.13,593.74,0.74,0000 0000 0000 0000 000000
2017-03-12 11:21:00,0.10,0.09,0.00,23.16,26.55,30.35,14.44,47.92,1013.18,2032.29,3557.61,3058.59,3506.94,599.97,593.76,0.79,0000 0000 0000 0000 000000
2017-03-12 11:26:01,0.13,0.10,0.00,23.16,26.55,30.38,14.46,47.84,1013.20,2032.50,3555.12,3056.87,3504.93,600.03,593.73,0.84,0000 0000 0000 0000 000000
2017-03-12 11:31:02,0.08,0.10,0.00,23.19,26.55,30.35,14.46,48.02,1013.21,2032.37,3552.54,3055.26,3502.93,599.97,593.68,0.89,0000 0000 0000 0000 000000
2017-03-12 11:36:04,0.13,0.11,0.00,23.38,26.54,30.25,14.46,47.92,1013.21,2032.40,3549.69,3053.18,3500.50,600.16,593.54,0.94,0000 0000 0000 0000 000000
2017-03-12 11:41:05,0.10,0.11,0.00,23.38,26.55,30.21,14.46,47.91,1013.24,2032.21,3546.94,3051.33,3498.26,599.99,593.52,0.99,0000 0000 0000 0000 000000
2017-03-12 11:46:06,0.11,0.12,0.00,23.43,26.55,30.22,14.36,47.74,1013.35,2032.08,3544.23,3049.46,3496.06,599.83,593.08,1.04,0000 0000 0000 0000 000000
2017-03-12 11:51:07,0.11,0.12,0.00,23.52,26.55,30.25,14.47,47.87,1013.40,2032.06,3541.54,3047.72,3493.91,599.91,593.01,1.09,0000 0000 0000 0000 000000
2017-03-12 11:56:08,0.12,0.13,0.00,23.54,26.57,30.25,14.39,47.81,1013.52,2032.05,3538.84,3045.83,3491.73,599.90,593.17,1.14,0000 0000 0000 0000 000000
2017-03-12 12:01:09,0.11,0.14,0.00,23.49,26.57,30.23,14.46,47.91,1013.65,2032.02,3536.17,3044.07,3489.56,599.65,592.92,1.19,0000 0000 0000 0000 000000
2017-03-12 12:06:11,0.11,0.14,0.00,23.34,26.57,30.22,14.45,47.92,1013.66,2032.02,3533.42,3042.31,3487.38,599.70,593.31,1.24,0000 0000 0000 0000 000000
2017-03-12 12:11:12,0.12,0.15,0.00,23.30,26.56,30.35,14.44,47.89,1013.63,2032.01,3530.80,3040.58,3485.20,600.02,593.70,1.29,0000 0000 0000 0000 000000
2017-03-12 12:16:13,0.11,0.15,0.00,23.34,26.55,30.35,14.48,47.85,1013.69,2032.01,3528.23,3038.88,3483.25,600.17,593.75,1.34,0000 0000 0000 0000 000000
2017-03-12 12:21:14,0.10,0.16,0.00,23.49,26.55,30.23,14.40,47.86,1013.69,2032.01,3525.81,3037.29,3481.28,600.05,593.38,1.39,0000 0000 0000 0000 000000
2017-03-12 12:26:16,0.12,0.17,0.00,23.50,26.55,30.17,14.38,47.92,1013.70,2032.01,3523.21,3035.55,3479.29,599.82,593.19,1.44,0000 0000 0000 0000 000000
2017-03-12 12:31:17,0.12,0.17,0.00,23.59,26.55,30.17,14.49,47.79,1013.69,2032.00,3520.50,3033.66,3477.02,600.29,593.43,1.49,0000 0000 0000 0000 000000
2017-03-12 12:36:18,0.10,0.18,0.00,23.58,26.55,30.18,14.39,47.83,1013.69,2032.01,3518.15,3032.08,3475.01,599.71,592.92,1.54,0000 0000 0000 0000 000000
2017-03-12 12:41:19,0.10,0.18,0.00,23.62,26.55,30.20,14.40,47.77,1013.70,2032.00,3515.68,3030.46,3473.07,600.12,593.24,1.59,0000 0000 0000 0000 000000
2017-03-12 12:46:21,0.10,0.19,0.00,23.65,26.55,30.22,14.33,47.77,1013.70,2032.00,3513.29,3028.85,3471.19,599.76,592.73,1.64,0000 0000 0000 0000 000000
2017-03-12 12:51:22,0.10,0.19,0.00,23.66,26.55,30.21,14.37,47.77,1013.71,2032.00,3510.94,3027.33,3469.27,599.76,592.76,1.69,0000 0000 0000 0000 000000